Погода в Пригородном

Россия / Карачаево-Черкесская Республика     44°14′11″N   42°06′56″E
темп.,
°C
ветер,
м/с
пор.,
м/с
влажн.,
%
обл.,
%
осадки,
мм/ч
давл.,
гПа
погр.,
м
14 мая, пт
пт1400:00+13ю22874 0.0 101320
03:00+12ю335715 0.0 101326
06:00+13ю33560 0.0 101332
09:00+23вюв12450 0.0 1012267
12:00+26в45465 0.0 1011565
15:00+26в68523 0.0 1010765
18:00+23в5107152 0.0 1010330
21:00+18ююз22799 0.0 101115
15 мая, сб
сб1500:00+15ююз22636 0.0 101221
03:00+15юз3257100 0.0 101322
06:00+15юз33650 0.0 101439
09:00+22з23640 0.0 1014440
12:00+25с33595 0.0 1013983
15:00+25ссв45625 0.0 10121228
18:00+22ссв2277100 2.3 101332
21:00+16ююз2281100 3.0 101323
16 мая, вс
вс1600:00+15ююв228361 0.3 101221
03:00+15ю2287100 0.3 101117
06:00+15ююз2282100 0.0 101136
09:00+21в236833 0.0 1009496
12:00+25в455997 0.0 10071247
15:00+25в776019 0.0 10061397
18:00+21всв597799 0.0 1005366
21:00+18юв4686100 0.1 1005101
17 мая, пн
пн1700:00+16ююв228242 0.1 100519
03:00+15ююв22771 0.1 100518
06:00+16ю22721 0.0 100532
09:00+24зсз11524 0.0 1005337
12:00+26с4452100 0.0 1005914
15:00+19юз4879100 1.6 1008235
18:00+17з478489 0.6 1008279
21:00+14юз3595100 1.9 1011101
18 мая, вт
вт1800:00+15юз479235 0.8 1010163
03:00+13зюз229292 1.4 101121
06:00+14з2492100 0.7 1013160
09:00+15сз1187100 0.9 1013280
12:00+19ссз557287 0.2 10141131
15:00+19сз3469100 0.6 10141218
18:00+17з2487100 1.4 1015185
21:00+14зюз119071 1.4 101611